• en France
  • Liste des pays
  • À 7 jours
  • Température de l'eau
  • Carte satellitaire
  • Carte météo
  • Widgets météo
  • user-avatar
    Se connecter

    Météo par heure à Telekeevo

    Ce jour, 17 Juillet, Mardi

    Heure Température Précipitation Vent Pression Humidité
    00:00 +20°C° 0 mm 2 m/s 748 mmHg 85%
    01:00 +19°C° 0 mm 3 m/s 748 mmHg 86%
    02:00 +19°C° 0 mm 3 m/s 748 mmHg 88%
    03:00 +19°C° 0 mm 3 m/s 748 mmHg 89%
    04:00 +18°C° 0 mm 2 m/s 748 mmHg 91%
    05:00 +19°C° 0 mm 3 m/s 748 mmHg 88%
    06:00 +20°C° 0 mm 3 m/s 748 mmHg 86%
    07:00 +21°C° 0 mm 3 m/s 748 mmHg 84%
    08:00 +22°C° 0,1 mm 3 m/s 748 mmHg 81%
    09:00 +23°C° 0,1 mm 4 m/s 748 mmHg 78%
    10:00 +25°C° 0,1 mm 4 m/s 748 mmHg 75%
    11:00 +26°C° 0,1 mm 4 m/s 748 mmHg 73%
    12:00 +26°C° 0,1 mm 5 m/s 748 mmHg 70%
    13:00 +26°C° 0,1 mm 5 m/s 748 mmHg 68%
    14:00 +26°C° 0 mm 5 m/s 748 mmHg 69%
    15:00 +26°C° 0 mm 4 m/s 747 mmHg 70%
    16:00 +26°C° 0 mm 4 m/s 747 mmHg 71%
    17:00 +25°C° 0 mm 4 m/s 747 mmHg 73%
    18:00 +25°C° 0 mm 3 m/s 747 mmHg 76%
    19:00 +24°C° 0 mm 3 m/s 747 mmHg 79%
    20:00 +22°C° 0,1 mm 3 m/s 747 mmHg 80%
    21:00 +21°C° 0,1 mm 3 m/s 747 mmHg 81%
    22:00 +20°C° 0,1 mm 4 m/s 747 mmHg 83%
    23:00 +20°C° 0,5 mm 4 m/s 746 mmHg 85%

    Demain, 18 Juillet, Mercredi

    Heure Température Précipitation Vent Pression Humidité
    00:00 +20°C° 0,5 mm 4 m/s 746 mmHg 87%
    01:00 +20°C° 0,5 mm 4 m/s 746 mmHg 89%
    02:00 +20°C° 0,6 mm 4 m/s 746 mmHg 91%
    03:00 +20°C° 0,6 mm 4 m/s 746 mmHg 92%
    04:00 +20°C° 0,6 mm 4 m/s 746 mmHg 93%
    05:00 +20°C° 0,5 mm 4 m/s 746 mmHg 93%
    06:00 +20°C° 0,5 mm 4 m/s 746 mmHg 93%
    07:00 +20°C° 0,5 mm 4 m/s 746 mmHg 93%
    08:00 +20°C° 0,2 mm 4 m/s 746 mmHg 90%
    09:00 +21°C° 0,2 mm 5 m/s 746 mmHg 88%
    10:00 +21°C° 0,2 mm 5 m/s 746 mmHg 86%
    11:00 +22°C° 0 mm 5 m/s 746 mmHg 83%
    12:00 +23°C° 0 mm 5 m/s 746 mmHg 80%
    13:00 +25°C° 0 mm 5 m/s 746 mmHg 77%
    14:00 +24°C° 0,1 mm 6 m/s 746 mmHg 79%
    15:00 +24°C° 0,1 mm 6 m/s 746 mmHg 82%
    16:00 +23°C° 0,1 mm 6 m/s 746 mmHg 84%
    17:00 +23°C° 0,1 mm 6 m/s 746 mmHg 85%
    18:00 +22°C° 0,1 mm 5 m/s 746 mmHg 85%
    19:00 +22°C° 0,1 mm 5 m/s 746 mmHg 86%
    20:00 +21°C° 0,1 mm 4 m/s 746 mmHg 88%
    21:00 +20°C° 0,1 mm 4 m/s 746 mmHg 91%
    22:00 +18°C° 0,1 mm 3 m/s 746 mmHg 94%
    23:00 +18°C° 0 mm 3 m/s 746 mmHg 94%

    Après-demain, 19 Juillet, Jeudi

    Heure Température Précipitation Vent Pression Humidité
    00:00 +18°C° 0 mm 3 m/s 747 mmHg 95%
    01:00 +18°C° 0 mm 2 m/s 747 mmHg 95%
    02:00 +18°C° 0 mm 2 m/s 747 mmHg 95%
    03:00 +18°C° 0 mm 2 m/s 747 mmHg 95%
    04:00 +18°C° 0 mm 2 m/s 747 mmHg 95%
    05:00 +19°C° 0 mm 2 m/s 747 mmHg 93%
    06:00 +20°C° 0 mm 2 m/s 747 mmHg 91%
    07:00 +21°C° 0 mm 2 m/s 747 mmHg 89%
    08:00 +23°C° 0,2 mm 2 m/s 747 mmHg 85%
    09:00 +25°C° 0,2 mm 2 m/s 748 mmHg 81%
    10:00 +26°C° 0,2 mm 2 m/s 748 mmHg 77%
    11:00 +27°C° 1,2 mm 2 m/s 748 mmHg 74%
    12:00 +27°C° 1,2 mm 2 m/s 748 mmHg 71%
    13:00 +28°C° 1,2 mm 2 m/s 748 mmHg 68%
    14:00 +28°C° 0,5 mm 2 m/s 748 mmHg 68%
    15:00 +28°C° 0,5 mm 2 m/s 748 mmHg 68%
    16:00 +28°C° 0,5 mm 2 m/s 748 mmHg 68%
    17:00 +27°C° 1 mm 2 m/s 748 mmHg 73%
    18:00 +26°C° 1 mm 2 m/s 749 mmHg 79%
    19:00 +25°C° 1 mm 2 m/s 749 mmHg 84%
    20:00 +24°C° 0,2 mm 3 m/s 749 mmHg 87%
    21:00 +22°C° 0,2 mm 3 m/s 749 mmHg 90%
    22:00 +21°C° 0,2 mm 3 m/s 749 mmHg 93%
    23:00 +20°C° 0 mm 3 m/s 749 mmHg 93%

    20 Juillet, Vendredi

    Heure Température Précipitation Vent Pression Humidité
    00:00 +19°C° 0 mm 3 m/s 749 mmHg 94%
    01:00 +19°C° 0 mm 3 m/s 749 mmHg 95%
    02:00 +18°C° 0 mm 3 m/s 749 mmHg 95%
    03:00 +18°C° 0 mm 3 m/s 749 mmHg 95%
    04:00 +18°C° 0 mm 3 m/s 750 mmHg 96%
    05:00 +18°C° 0 mm 3 m/s 750 mmHg 94%
    06:00 +19°C° 0 mm 3 m/s 750 mmHg 92%
    07:00 +19°C° 0 mm 3 m/s 750 mmHg 91%
    08:00 +21°C° 0 mm 4 m/s 750 mmHg 87%
    09:00 +22°C° 0 mm 4 m/s 750 mmHg 84%
    10:00 +23°C° 0 mm 4 m/s 750 mmHg 80%
    11:00 +25°C° 0,4 mm 4 m/s 750 mmHg 78%
    12:00 +26°C° 0,4 mm 4 m/s 750 mmHg 76%
    13:00 +27°C° 0,4 mm 4 m/s 750 mmHg 73%
    14:00 +27°C° 0,7 mm 4 m/s 750 mmHg 73%
    15:00 +27°C° 0,7 mm 4 m/s 750 mmHg 72%
    16:00 +27°C° 0,7 mm 4 m/s 750 mmHg 72%
    17:00 +26°C° 0,4 mm 4 m/s 750 mmHg 76%
    18:00 +26°C° 0,4 mm 4 m/s 749 mmHg 80%
    19:00 +25°C° 0,4 mm 4 m/s 749 mmHg 84%
    20:00 +23°C° 0 mm 4 m/s 750 mmHg 87%
    21:00 +21°C° 0 mm 4 m/s 750 mmHg 89%
    22:00 +20°C° 0 mm 3 m/s 750 mmHg 92%
    23:00 +20°C° 0 mm 4 m/s 750 mmHg 93%

    21 Juillet, Samedi

    Heure Température Précipitation Vent Pression Humidité
    00:00 +19°C° 0 mm 4 m/s 750 mmHg 93%
    01:00 +19°C° 0 mm 4 m/s 750 mmHg 94%
    02:00 +18°C° 0 mm 4 m/s 750 mmHg 94%
    03:00 +18°C° 0 mm 4 m/s 750 mmHg 94%
    04:00 +18°C° 0 mm 4 m/s 750 mmHg 95%
    05:00 +17°C° 0 mm 5 m/s 750 mmHg 92%
    06:00 +19°C° 0 mm 5 m/s 751 mmHg 90%
    07:00 +20°C° 0 mm 6 m/s 751 mmHg 87%
    08:00 +21°C° 0 mm 6 m/s 751 mmHg 83%
    09:00 +22°C° 0 mm 6 m/s 751 mmHg 78%
    10:00 +23°C° 0 mm 7 m/s 751 mmHg 74%
    11:00 +24°C° 0 mm 7 m/s 751 mmHg 70%
    12:00 +26°C° 0 mm 7 m/s 751 mmHg 67%
    13:00 +26°C° 0 mm 7 m/s 751 mmHg 64%
    14:00 +27°C° 0 mm 7 m/s 750 mmHg 64%
    15:00 +27°C° 0 mm 6 m/s 750 mmHg 64%
    16:00 +27°C° 0 mm 6 m/s 750 mmHg 64%
    17:00 +26°C° 0 mm 6 m/s 750 mmHg 67%
    18:00 +25°C° 0 mm 5 m/s 750 mmHg 70%
    19:00 +23°C° 0 mm 5 m/s 750 mmHg 74%
    20:00 +22°C° 0 mm 5 m/s 751 mmHg 71%
    21:00 +21°C° 0 mm 6 m/s 751 mmHg 69%
    22:00 +20°C° 0 mm 6 m/s 751 mmHg 66%
    23:00 +20°C° 0 mm 6 m/s 751 mmHg 66%

    22 Juillet, Dimanche

    Heure Température Précipitation Vent Pression Humidité
    00:00 +19°C° 0 mm 6 m/s 751 mmHg 67%
    01:00 +17°C° 0 mm 6 m/s 751 mmHg 67%
    02:00 +16°C° 0 mm 5 m/s 751 mmHg 69%
    03:00 +15°C° 0 mm 5 m/s 752 mmHg 71%
    04:00 +15°C° 0 mm 5 m/s 752 mmHg 73%
    05:00 +15°C° 0 mm 5 m/s 752 mmHg 73%
    06:00 +15°C° 0 mm 6 m/s 752 mmHg 74%
    07:00 +16°C° 0 mm 6 m/s 752 mmHg 74%
    08:00 +17°C° 0 mm 6 m/s 752 mmHg 70%
    09:00 +18°C° 0 mm 7 m/s 752 mmHg 67%
    10:00 +20°C° 0 mm 7 m/s 752 mmHg 64%
    11:00 +21°C° 0 mm 7 m/s 752 mmHg 62%
    12:00 +22°C° 0 mm 7 m/s 752 mmHg 60%
    13:00 +23°C° 0 mm 7 m/s 752 mmHg 58%
    14:00 +23°C° 0 mm 6 m/s 752 mmHg 58%
    15:00 +24°C° 0 mm 6 m/s 752 mmHg 58%
    16:00 +24°C° 0 mm 6 m/s 752 mmHg 58%
    17:00 +23°C° 0 mm 5 m/s 752 mmHg 62%
    18:00 +23°C° 0 mm 5 m/s 752 mmHg 67%
    19:00 +22°C° 0 mm 4 m/s 752 mmHg 71%
    20:00 +21°C° 0 mm 4 m/s 752 mmHg 71%
    21:00 +19°C° 0 mm 4 m/s 752 mmHg 72%
    22:00 +17°C° 0 mm 5 m/s 752 mmHg 72%
    23:00 +17°C° 0 mm 4 m/s 752 mmHg 72%
    Voir plus